Queen Alia, Jordan

9:31 PM EET on November 24, 2017 (GMT +0200)
Queen Alia International

Weather History for OJAI - October, 2012

Change the Weather History Date:

Friday, October 5, 2012

  Actual Average Record
Temperature  
Mean Temperature 70 °F -  
Max Temperature 83 °F 76 °F 93 °F (2008)
Min Temperature 56 °F 49 °F 45 °F (2013)
Cooling Degree Days 4    
Growing Degree Days 20 (Base 50)    
Moisture  
Dew Point 53 °F    
Average Humidity 58    
Maximum Humidity 88    
Minimum Humidity 19    
Precipitation  
Precipitation 0.00 in - - ()
Sea Level Pressure  
Sea Level Pressure 30.00 in    
Wind  
Wind Speed 5 mph ()    
Max Wind Speed 14 mph    
Max Gust Speed -    
Visibility 4.7 miles    
Events      
Averages and records for this station are not official NWS values.
T = Trace of Precipitation, MM = Missing Value Source: Averaged Metar Reports

Daily Weather History Graph

Daily Weather History Graph

Search for Another Location

Airport or City:

Trip Planner

Search our weather history database for the weather conditions in past years. The results will help you decide how hot, cold, wet, or windy it might be!

Date:

Astronomy

Oct. 05, 2012 Rise Set
Actual Time 6:32 AM EEST 6:15 PM EEST
Civil Twilight 6:08 AM EEST 6:40 PM EEST
Nautical Twilight 5:39 AM EEST 7:08 PM EEST
Astronomical Twilight 5:11 AM EEST 7:36 PM EEST
Moon 9:38 PM EEST (10/5) 11:06 AM EEST (10/5)
Length of Visible Light 12h 31m
Length of Day
11h 43m
Waning Gibbous, 76% of the Moon is Illuminated
Oct 5
Waning Gibbous
Oct 8
Last Quarter
Oct 15
New
Oct 22
First Quarter
Oct 29
Full

Hourly Weather History & Observations

Time (EEST) Temp. Dew Point Humidity Pressure Visibility Wind Dir Wind Speed Gust Speed Precip Events Conditions
12:00 AM 65 °F 56 °F 65% 29.90 in 4 mi NW 5.8 mph - -   Haze
12:00 AM 64.4 °F 55.4 °F 73% 30.01 in 3.7 mi NW 5.8 mph - N/A   Unknown
1:00 AM 62.6 °F 55.4 °F 77% 30.01 in 3.7 mi NW 5.8 mph - N/A   Unknown
2:00 AM 62.6 °F 55.4 °F 77% 30.01 in 3.7 mi NW 8.1 mph - N/A   Unknown
3:00 AM 61 °F 56 °F 77% 29.91 in 4 mi NW 5.8 mph - -   Haze
3:00 AM 60.8 °F 55.4 °F 82% 30.01 in 3.7 mi NW 5.8 mph - N/A   Unknown
4:00 AM 59.0 °F 53.6 °F 82% 30.01 in 3.7 mi Calm Calm - N/A   Unknown
5:00 AM 57.2 °F 51.8 °F 82% 30.01 in 3.7 mi Calm Calm - N/A   Unknown
6:00 AM 56 °F 51 °F 78% 29.94 in 4 mi Calm Calm - -   Haze
6:00 AM 55.4 °F 51.8 °F 88% 30.01 in 3.7 mi Calm Calm - N/A   Unknown
7:00 AM 57.2 °F 51.8 °F 82% 30.01 in 3.7 mi Calm Calm - N/A   Unknown
8:00 AM 59.0 °F 53.6 °F 82% 30.04 in 3.7 mi Calm Calm - N/A   Unknown
9:00 AM 67 °F 56 °F 59% 29.96 in 4 mi Calm Calm - -   Haze
9:00 AM 66.2 °F 55.4 °F 68% 30.04 in 4.3 mi Calm Calm - N/A   Unknown
10:00 AM 71.6 °F 55.4 °F 57% 30.04 in 5.0 mi West 5.8 mph - N/A   Partly Cloudy
11:00 AM 73.4 °F 53.6 °F 50% 30.04 in 6.2 mi WSW 5.8 mph - N/A   Partly Cloudy
12:00 PM 78 °F 49 °F 25% 29.94 in 6 mi WSW 11.5 mph - -   Scattered Clouds
12:00 PM 77.0 °F 48.2 °F 36% 30.04 in 6.2 mi WSW 11.5 mph - N/A   Partly Cloudy
1:00 PM 78.8 °F 50.0 °F 36% 30.04 in 6.2 mi NW 11.5 mph - N/A   Partly Cloudy
2:00 PM 80.6 °F 42.8 °F 26% 30.01 in 6.2 mi WNW 11.5 mph - N/A   Partly Cloudy
3:00 PM 82 °F 46 °F 19% 29.90 in 5 mi West 13.8 mph - -   Haze
3:00 PM 82.4 °F 46.4 °F 28% 30.01 in 5.0 mi West 13.8 mph - N/A   Partly Cloudy
4:00 PM 80.6 °F 48.2 °F 32% 30.01 in 5.0 mi West 13.8 mph - N/A   Partly Cloudy
5:00 PM 78.8 °F 50.0 °F 36% 30.01 in 5.0 mi West 13.8 mph - N/A   Partly Cloudy
6:00 PM 76 °F 52 °F 32% 29.93 in 5 mi WNW 9.2 mph - -   Haze
6:00 PM 75.2 °F 51.8 °F 44% 30.01 in 5.0 mi WNW 9.2 mph - N/A   Unknown
7:00 PM 73.4 °F 51.8 °F 47% 30.01 in 5.0 mi WNW 6.9 mph - N/A   Unknown
8:00 PM 69.8 °F 53.6 °F 56% 30.01 in 5.0 mi WNW 6.9 mph - N/A   Unknown
9:00 PM 68 °F 55 °F 53% 29.95 in 6 mi West 6.9 mph - -  
9:00 PM 68.0 °F 55.4 °F 64% 30.04 in - West 6.9 mph - N/A   Clear
10:00 PM 68.0 °F 57.2 °F 68% 30.04 in - WNW 6.9 mph - N/A   Clear
11:00 PM 64.4 °F 55.4 °F 73% 30.04 in - NW 6.9 mph - N/A   Clear